Location: Possagno
(45.8500°N, 11.8667°E)
Time: 20:10:29
(UTC+00:00)

STARLINK-61 - Pass Details

Date: 07 June 2020
Orbit: 505 x 517 km, 53.0° (Epoch: 05 July)

Event Time Altitude Azimuth Distance (km) Brightness Sun altitude
Exits shadow 01:37:37 24° 229° (SW) 1,099 4.6 -13.8°
Maximum altitude 01:39:54 77° 146° (SE) 528 3.4 -13.5°
Drops below altitude 10° 01:43:49 10° 61° (ENE) 1,736 7.3 -13.2°
Sets 01:46:02 0° 60° (ENE) 2,627 8.4 -12.9°
